SCP
0 0 0 0 0 0 0 0 0 0 0 0 0 0 0 0 0 0 0 0 0 0 0 0 0 0 0 0 0 0 0 0 0 0 0 0 0 0 0 0 0 0 0
0 0 0 0 0 0 0 0 0 0 0 0 0 0 0 0 0 0 0 0 0 0 0 0 0 0 0 0 0 0 0 0 0 0 0 0 0 0 0 0 0 0 0
0 0 0 0 0 0 0 0 0 0 0 0 0 0 0 0 0 0 0 0 0 0 0 0 0 0 0 0 0 0 0 0 0 0 0 0 0 0 0 0 0 0 0
0 0 0 0 0 0 0 0 0 0 0 0 0 0 0 0 0 0 0 0 0 0 0 0 0 0 0 0 0 0 0 0 0 0 0 0 0 0 0 0 0 0 0
0 0 0 0 0 0 0 0 0 0 0 0 0 0 0 0 0 0 0 0 0 0 0 0 0 0 0 0 0 0 0 0 0 0 0 0 0 0 0 0 0 0 0
0 0 0 0 0 0 0 0 0 0 0 0 0 0 0 0 0 0 0 0 0 0 0 0 0 0 0 0 0 0 0 0 0 0 0 0 0 0 0 0 0 0 0
0 0 0 0 0 0 0 0 0 0 0 0 0 0 0 0 0 0 0 0 0 0 0 0 0 0 0 0 0 0 0 0 0 0 0 0 0 0 0 0 0 0 0
0 0 0 0 0 0 0 0 0 0 0 0 0 0 0 0 0 0 0 0 0 0 0 0 0 0 0 0 0 0 0 0 0 0 0 0 0 0 0 0 0 0 0
0 0 0 0 0 0 0 0 0 0 0 0 0 0 0 0 0 0 0 0 0 0 0 0 0 0 0 0 0 0 0 0 0 0 0 0 0 0 0 0 0 0 0
0 0 0 0 0 0 0 0 0 0 0 0 0 0 0 0 0 0 0 0 0 0 0 0 0 0 0 0 0 0 0 0 0 0 0 0 0 0 0 0 0 0 0
0 0 0 0 0 0 0 0 0 0 0 0 0 0 0 0 0 0 0 0 0 0 0 0 0 0 0 0 0 0 0 0 0 0 0 0 0 0 0 0 0 0 0
0 0 0 0 0 0 0 0 0 0 0 0 0 0 0 0 0 0 0 0 0 0 0 0 0 0 0 0 0 0 0 0 0 0 0 0 0 0 0 0 0 0 0
0 0 0 0 0 0 0 0 0 0 0 0 0 0 0 0 0 0 0 0 0 0 0 0 0 0 0 0 0 0 0 0 0 0 0 0 0 0 0 0 0 0 0
0 0 0 0 0 0 0 0 0 0 0 0 0 0 0 0 0 0 0 0 0 0 0 0 0 0 0 0 0 0 0 0 0 0 0 0 0 0 0 0 0 0 0
0 0 0 0 0 0 0 0 0 0 0 0 0 0 0 0 0 0 0 0 0 0 0 0 0 0 0 0 0 0 0 0 0 0 0 0 0 0 0 0 0 0 0
0 0 0 0 0 0 0 0 0 0 0 0 0 0 0 0 0 0 0 0 0 0 0 0 0 0 0 0 0 0 0 0 0 0 0 0 0 0 0 0 0 0 0
0 0 0 0 0 0 0 0 0 0 0 0 0 0 0 0 0 0 0 0 0 0 0 0 0 0 0 0 0 0 0 0 0 0 0 0 0 0 0 0 0 0 0
0 0 0 0 0 0 0 0 0 0 0 0 0 0 0 0 0 0 0 0 0 0 0 0 0 0 0 0 0 0 0 0 0 0 0 0 0 0 0 0 0 0 0
0 0 0 0 0 0 0 0 0 0 0 0 0 0 0 0 0 0 0 0 0 0 0 0 0 0 0 0 0 0 0 0 0 0 0 0 0 0 0 0 0 0 0
0 0 0 0 0 0 0 0 0 0 0 0 0 0 0 0 0 0 0 0 0 0 0 0 0 0 0 0 0 0 0 0 0 0 0 0 0 0 0 0 0 0 0
0 0 0 0 0 0 0 0 0 0 0 0 0 0 0 0 0 0 0 0 0 0 0 0 0 0 0 0 0 0 0 0 0 0 0 0 0 0 0 0 0 0 0
0 0 0 0 0 0 0 0 0 0 0 0 0 0 0 0 0 0 0 0 0 0 0 0 0 0 0 0 0 0 0 0 0 0 0 0 0 0 0 0 0 0 0
0 0 0 0 0 0 0 0 0 0 0 0 0 0 0 0 0 0 0 0 0 0 0 0 0 0 0 0 0 0 0 0 0 0 0 0 0 0 0 0 0 0 0
0 0 0 0 0 0 0 0 0 0 0 0 0 0 0 0 0 0 0 0 0 0 0 0 0 0 0 0 0 0 0 0 0 0 0 0 0 0 0 0 0 0 0
0 0 0 0 0 0 0 0 0 0 0 0 0 0 0 0 0 0 0 0 0 0 0 0 0 0 0 0 0 0 0 0 0 0 0 0 0 0 0 0 0 0 0
0 0 0 0 0 0 0 0 0 0 0 0 0 0 0 0 0 0 0 0 0 0 0 0 0 0 0 0 0 0 0 0 0 0 0 0 0 0 0 0 0 0 0
Wind_Speed
4 4 4 4 4 4 5 6 6 6 6 6 6 6 6 7 6 5 6 6 6 6 6 6 7 5 4 3 3 2 3 2 4 3 1 1 2 5 5 5 5 5 4
4 4 4 5 5 5 6 7 6 7 7 7 7 7 7 7 7 7 8 7 6 7 7 6 7 6 5 4 3 4 3 3 3 4 2 1 2 6 7 7 5 5 4
4 4 4 5 5 6 7 7 7 7 7 7 7 7 8 8 8 8 8 8 8 8 7 7 7 6 6 5 5 4 4 4 3 3 2 2 1 4 6 6 7 5 5
4 4 5 6 6 7 7 7 7 7 7 7 7 8 8 8 8 9 9 9 9 9 8 8 8 7 8 7 6 6 5 4 4 3 3 2 2 4 6 7 5 3 3
4 5 6 6 6 6 6 7 7 7 8 7 7 8 8 7 8 9 9 10 8 9 8 8 8 11 12 9 6 6 6 5 4 4 4 3 3 6 6 5 7 5 3
5 6 6 6 6 6 6 7 7 7 7 7 7 8 8 9 11 14 12 8 8 8 8 8 8 10 13 14 14 13 11 8 7 5 4 5 5 6 5 7 8 7 4
5 6 5 5 6 7 7 7 8 8 7 8 8 8 9 11 15 17 18 11 9 9 9 8 10 10 10 7 10 13 13 14 12 7 7 6 6 6 8 9 9 7 4
5 6 5 6 7 7 7 8 8 7 7 8 9 9 9 11 15 15 17 12 9 10 10 10 10 9 9 8 6 6 7 8 10 8 6 6 5 6 8 8 9 7 6
6 6 6 6 7 8 8 9 8 8 8 8 8 9 9 11 14 14 14 7 7 9 10 10 10 10 13 13 8 7 6 6 8 10 9 8 8 9 8 8 9 10 7
6 6 6 6 7 8 9 9 8 7 8 8 8 8 8 9 12 14 12 5 6 7 7 8 12 12 13 13 8 7 8 6 6 6 6 7 7 8 12 10 11 11 8
6 6 6 7 7 8 8 7 8 8 8 8 8 8 7 8 10 11 10 4 5 6 6 5 6 11 13 13 10 7 9 7 6 7 6 6 5 6 8 8 8 9 9
5 6 7 7 8 8 8 9 8 8 8 8 7 7 6 6 6 7 9 8 7 5 5 4 5 10 11 11 9 9 11 8 5 5 5 6 6 7 7 7 7 6 5
5 7 7 8 7 7 7 9 8 7 5 6 5 6 6 4 4 7 8 8 7 4 4 6 7 8 8 7 10 11 8 5 5 5 6 6 6 6 6 6 6 6 6
6 7 7 8 8 8 6 6 6 6 6 6 6 6 5 4 4 3 4 4 4 4 3 4 4 5 5 5 6 6 5 5 5 5 5 5 4 5 6 6 6 7 6
6 6 7 7 7 8 7 7 7 7 7 7 6 5 5 5 5 5 4 3 3 3 2 1 1 1 2 3 3 4 4 4 4 4 4 4 5 6 6 6 6 6 6
5 6 6 6 6 6 7 9 11 10 12 12 11 9 6 8 8 7 7 7 7 5 2 2 2 2 2 3 4 4 4 5 5 5 5 5 5 6 6 6 7 7 7
5 6 6 6 6 7 7 7 9 10 10 9 10 11 11 10 9 9 8 7 6 4 2 3 3 3 3 3 4 4 5 5 5 5 5 5 5 5 5 7 8 8 7
6 7 7 6 6 7 7 7 7 7 7 6 6 8 9 10 9 9 7 4 3 3 3 4 4 4 3 4 4 4 4 4 4 5 5 5 5 5 6 7 8 9 8
5 5 5 6 6 7 7 7 6 6 5 5 5 5 6 5 6 6 5 4 4 4 4 4 5 4 4 4 4 4 5 5 5 5 6 6 6 6 6 7 7 11 9
5 9 9 6 6 7 6 6 6 5 5 5 5 5 3 1 2 3 4 5 5 5 5 5 5 5 5 5 5 4 4 5 5 5 6 6 6 6 7 8 8 9 9
4 6 11 7 6 6 6 6 6 5 5 5 5 5 4 3 4 4 4 5 5 6 6 5 5 5 5 5 5 5 6 5 5 6 6 6 7 6 6 7 8 9 9
4 4 5 6 6 6 7 6 6 5 5 6 5 5 6 4 4 4 4 4 5 5 5 5 5 5 5 5 6 6 6 6 6 6 6 6 7 7 7 8 9 9 9
4 5 5 5 5 7 7 6 5 5 5 5 5 4 4 4 4 4 4 4 4 4 4 4 4 4 4 4 5 6 6 7 7 7 7 7 7 8 8 8 11 11 11
4 4 4 5 5 5 6 6 6 5 5 5 4 4 4 4 4 4 4 4 4 4 3 3 3 5 5 4 4 4 5 5 6 7 9 9 9 8 8 9 10 12 12
3 3 3 4 5 5 6 6 6 6 5 4 4 4 4 5 4 4 4 3 3 3 3 3 2 3 4 4 3 3 5 7 6 6 7 7 9 9 9 10 10 11 11
2 3 3 4 4 5 5 6 6 6 5 5 5 4 4 5 5 4 4 3 3 2 2 2 2 1 1 1 2 3 4 5 7 8 7 7 9 9 10 9 12 11 13
Wind_Direction
266 263 269 270 269 268 267 267 267 267 269 269 270 275 278 280 281 280 277 278 274 277 277 268 263 258 252 246 228 216 220 218 251 269 267 235 146 145 125 114 112 114 126
255 258 261 265 269 271 269 267 265 263 263 260 260 262 267 272 271 270 274 278 268 267 269 267 265 263 251 243 232 225 218 216 230 259 266 228 160 153 137 126 113 107 102
260 261 268 273 274 272 270 270 268 264 264 262 258 255 258 261 262 261 260 264 263 258 255 255 257 256 253 243 233 229 222 226 220 235 252 247 150 143 129 113 107 105 102
262 266 272 272 270 269 271 273 271 267 264 262 257 253 252 253 254 257 257 258 260 259 254 249 247 244 243 237 232 226 217 217 220 228 231 236 175 151 139 136 131 117 106
267 271 270 273 276 277 278 278 276 272 273 265 262 259 255 255 256 253 249 257 256 258 258 252 249 250 246 238 228 216 207 206 209 220 219 210 188 167 161 150 143 131 99
272 275 277 283 286 284 283 282 281 278 275 272 266 262 261 267 267 261 256 252 249 249 253 252 256 263 257 248 238 223 206 199 201 208 214 210 204 179 159 156 150 149 145
283 284 286 288 289 288 291 294 286 282 278 276 270 264 263 263 262 261 261 255 244 243 242 244 256 257 251 239 238 232 222 214 202 194 208 211 204 185 168 169 168 156 141
291 290 291 293 293 292 290 288 285 280 277 275 274 270 268 272 268 262 261 257 244 240 238 235 236 244 247 234 229 229 222 216 209 202 203 211 211 195 182 172 157 126 103
293 290 291 294 296 297 295 292 288 285 283 278 274 273 273 277 275 270 265 252 243 242 240 237 232 234 235 226 218 218 220 225 218 206 198 198 198 192 174 151 152 152 145
285 285 290 293 295 295 293 290 288 284 281 282 281 277 273 276 279 278 271 246 244 247 245 240 235 232 228 216 208 205 212 214 198 194 195 197 198 196 185 178 169 166 151
282 291 296 296 294 291 288 288 290 290 288 284 283 283 280 278 284 286 280 245 237 245 245 238 233 228 224 217 204 204 211 200 189 184 184 188 193 197 195 192 182 172 162
291 299 299 296 297 306 298 296 293 289 289 288 286 290 288 287 288 295 293 273 246 241 243 234 229 227 222 215 207 211 212 199 183 177 181 190 196 197 194 191 186 178 158
302 302 299 300 297 294 293 296 298 292 285 285 284 284 289 290 294 306 308 299 271 244 242 244 236 224 215 209 206 200 194 186 178 180 189 195 195 187 177 177 173 149 124
299 299 298 301 303 303 296 290 289 288 287 285 281 279 282 286 288 303 310 308 293 270 264 265 247 212 198 187 182 182 181 183 177 180 188 188 174 174 177 173 173 161 143
295 294 297 296 298 302 299 290 286 276 265 266 268 262 265 276 269 274 285 288 283 272 280 265 225 174 169 166 164 168 180 183 184 176 174 175 175 178 181 173 170 162 159
296 298 297 300 301 300 302 306 297 284 284 273 256 249 251 249 265 276 281 285 286 279 265 241 233 210 193 181 176 177 189 193 189 181 175 175 179 179 179 174 172 169 165
283 289 294 296 299 301 300 300 306 310 304 290 274 265 252 256 260 265 270 282 286 267 239 236 235 226 210 194 186 185 192 195 186 181 181 180 176 174 174 177 175 171 168
285 291 295 291 295 297 295 294 290 292 302 304 291 275 268 261 258 257 258 270 271 238 228 232 233 230 223 207 199 198 197 187 181 184 186 183 176 172 174 178 176 173 165
289 289 291 292 293 293 293 294 293 290 289 292 299 299 282 274 268 256 234 230 241 242 235 235 232 227 224 219 209 200 192 189 185 183 188 185 178 171 175 177 174 169 164
286 301 309 300 298 300 300 299 298 294 293 296 297 291 287 260 266 250 221 229 241 245 241 239 238 231 223 219 212 203 197 192 187 186 186 184 180 177 177 176 173 172 173
287 301 311 308 297 298 299 299 296 294 293 293 291 284 271 253 262 264 252 238 236 240 241 240 236 230 224 214 206 201 198 196 192 190 184 181 178 177 178 176 174 172 169
283 288 294 297 301 304 305 302 299 299 301 298 296 298 290 272 272 273 267 257 246 240 236 232 233 228 218 211 204 198 197 196 193 188 185 179 176 175 174 174 172 170 170
285 292 297 300 303 310 314 313 312 309 305 305 304 304 306 297 290 286 279 275 268 260 249 238 236 234 225 214 203 195 196 198 193 183 178 175 173 174 173 173 172 171 172
287 291 300 307 312 315 315 315 317 315 311 313 313 305 300 297 296 293 289 284 278 270 259 241 233 232 227 220 210 201 199 193 182 181 178 175 173 172 171 172 172 173 173
289 302 314 314 315 317 317 318 320 320 319 317 316 310 302 302 305 305 300 295 294 291 290 279 259 246 239 226 210 202 194 188 185 179 174 173 173 172 171 171 170 169 168
304 325 326 320 318 320 321 320 320 321 319 318 316 311 310 314 319 323 320 315 314 311 313 310 297 275 238 190 178 180 182 184 185 183 176 171 172 173 170 170 168 168 168